Regional Weather Roundup
Issued by NWS Cleveland, OH

Home | Current Version | Previous Version | Text Only | Print | Product List | Glossary Off
Versions: 1 2 3 4 5 6 7 8 9 10 11 12 13 14 15 16 17 18 19 20 21 22 23 24 25 26 27 28 29 30 31 32 33 34 35 36 37 38 39 40 41 42 43 44 45 46 47 48 49 50

365
ASUS41 KCLE 260912
RWRCLE
OHIO REGIONAL WEATHER ROUNDUP
NATIONAL WEATHER SERVICE WILMINGTON, OH
500 AM EDT MON JUN 26 2017

NOTE: "FAIR" INDICATES FEW OR NO CLOUDS BELOW 12,000 FEET WITH NO
SIGNIFICANT WEATHER AND/OR OBSTRUCTIONS TO VISIBILITY.

OHZ001>008-015>018-024>027-034-035-043-044-261000-
   NORTHWEST OHIO

CITY           SKY/WX    TMP DP  RH WIND       PRES   REMARKS
DEFIANCE       MOCLDY    56  50  80 W5        30.06S
FINDLAY        FAIR      56  48  74 W8        30.05S
TOLEDO EXPRESS MOCLDY    58  51  78 W7        30.04R
TOLEDO EXEC    CLOUDY    60  52  74 W7        30.04S
LIMA           FAIR      55  50  83 SW8       30.08S
$$

OHZ009>014-019>023-028>033-038-089-261000-
   NORTHEAST OHIO

CITY           SKY/WX    TMP DP  RH WIND       PRES   REMARKS
CLE-HOPKINS    FAIR      57  49  74 SW8       30.05S
CLE-LAKEFRONT  LGT RAIN  61  48  62 SW10      30.02S
CUY CO. ARPT   NOT AVBL
LORAIN-ELYRIA  FAIR      54  45  71 SW7       30.05R
ASHTABULA      FAIR      55  51  86 S3        30.04R
AKRON-CANTON   FAIR      56  46  69 SW6       30.06S
WOOSTER        FAIR      53  47  79 SW5       30.07S
MANSFIELD      FAIR      54  47  77 SW6       30.07S
YOUNGSTOWN     FAIR      51  47  86 SW3       30.05S
$$

OHZ042-051>053-060>062-070>072-077>081-261000-
  SOUTHWEST OHIO

CITY           SKY/WX    TMP DP  RH WIND       PRES   REMARKS
CINC-COVINGTON FAIR      56  50  80 W6        30.13S
CINC-LUNKEN    FAIR      60  50  69 W6        30.13S
HAMILTON       FAIR      55  53  93 W3        30.14R
DAYTON         FAIR      56  49  77 W12       30.12S
WRIGHT-PAT AFB FAIR      54  53  95 W3        30.11R
DAYTON GENERAL FAIR      59  50  72 W5        30.11S
WILMINGTON     FAIR      58  50  75 W8        30.11S
$$

OHZ036-037-039>041-045>050-054>059-063>069-073>076-082>088-261000-
  CENTRAL AND SOUTHEAST OHIO

CITY           SKY/WX    TMP DP  RH WIND       PRES   REMARKS
COLUMBUS       FAIR      57  52  83 CALM      30.08S
OSU AIRPORT    FAIR      55  49  80 W6        30.08S
BOLTON FIELD   NOT AVBL
RICKENBACK AFB FAIR      55  52  90 CALM      30.08S
NEWARK         FAIR      51  49  92 CALM      30.08S
MARION         FAIR      57  47  69 SW7       30.08S
LANCASTER      FAIR      52  49  89 S3        30.10S
ZANESVILLE     FAIR      52  49  89 CALM      30.09R
NEW PHILLY     FAIR      50  49  96 CALM      30.08S
$$




USA.gov is the U.S. government's official web portal to all federal, state and local government web resources and services.